GW5922 Weather Reports


Display with metric or nautical units.
time (UTC)temp
F
wind
direction
speed
MPH
gust
MPH
rain 1hr
in
rain 24hr
in
rain mn
in
humidity
%
barometer
mb
20260504150647 61 248 10.0 20.0 0.00 0.00 0.00 45 1012.0
20260504150144 61 252 9.0 16.0 0.00 0.00 0.00 46 1012.0
20260504141113 58 205 7.0 13.0 0.00 0.00 0.00 48 1012.3
20260504140610 58 271 6.0 13.0 0.00 0.00 0.00 48 1012.3
20260504140105 58 248 5.0 10.0 0.00 0.00 0.00 50 1012.3
20260504130534 53 294 3.0 9.0 0.00 0.00 0.00 58 1012.7
20260504110421 46 254 4.0 7.0 0.00 0.00 0.00 63 1013.0
20260504100338 44 262 2.0 4.0 0.00 0.00 0.00 65 1012.7
20260504081731 45 261 4.0 6.0 0.00 0.00 0.00 63 1012.7
20260504081228 45 269 4.0 6.0 0.00 0.00 0.00 63 1012.7
20260504080724 45 274 3.0 6.0 0.00 0.00 0.00 63 1012.7
20260504080220 45 299 2.0 6.0 0.00 0.00 0.00 64 1012.7
20260504070148 45 257 1.0 3.0 0.00 0.00 0.00 62 1012.7
20260504060109 47 275 2.0 4.0 0.00 0.00 0.00 59 1012.7
20260504050537 48 256 4.0 6.0 0.00 0.00 0.00 58 1012.7
20260504045531 48 268 4.0 5.0 0.00 0.00 0.00 58 1012.3
20260504045026 48 272 3.0 6.0 0.00 0.00 0.00 58 1012.7
20260504044524 48 269 3.0 6.0 0.00 0.00 0.00 58 1012.7
20260504044021 48 266 3.0 4.0 0.00 0.00 0.00 58 1012.7
20260504043518 48 266 3.0 5.0 0.00 0.00 0.00 57 1012.7
20260504043015 48 266 3.0 6.0 0.00 0.00 0.00 57 1012.7
20260504042512 48 248 2.0 6.0 0.00 0.00 0.00 57 1012.7
20260504042009 48 257 2.0 5.0 0.00 0.00 0.00 56 1012.3
20260504041505 49 255 3.0 5.0 0.00 0.00 0.00 56 1012.3
20260504041001 49 253 3.0 5.0 0.00 0.00 0.00 55 1012.3
20260504040458 49 257 3.0 6.0 0.00 0.00 0.00 55 1012.3
20260504035954 49 254 4.0 6.0 0.00 0.00 0.00 55 1012.3
20260504035452 49 271 4.0 6.0 0.00 0.00 0.00 55 1012.3
20260504034948 50 271 4.0 5.0 0.00 0.00 0.00 55 1012.3
20260504034446 50 249 4.0 5.0 0.00 0.00 0.00 54 1012.0
20260504033943 50 246 4.0 6.0 0.00 0.00 0.00 54 1012.0
20260504033441 50 264 4.0 6.0 0.00 0.00 0.00 54 1012.0
20260504032938 50 280 3.0 5.0 0.00 0.00 0.00 53 1012.0
20260504032434 50 276 4.0 6.0 0.00 0.00 0.00 54 1012.0
20260504031931 50 272 4.0 6.0 0.00 0.00 0.00 53 1012.0
20260504031428 50 276 3.0 6.0 0.00 0.00 0.00 53 1012.0
20260504030925 50 285 3.0 5.0 0.00 0.00 0.00 53 1011.7
20260504030422 50 283 3.0 5.0 0.00 0.00 0.00 53 1011.7
20260504025917 50 269 3.0 5.0 0.00 0.00 0.00 54 1011.7
20260504025415 50 283 3.0 4.0 0.00 0.00 0.00 54 1011.7
20260504024912 50 270 3.0 4.0 0.00 0.00 0.00 54 1012.0
20260504024409 50 263 3.0 5.0 0.00 0.00 0.00 53 1012.0
20260504023906 50 256 3.0 5.0 0.00 0.00 0.00 52 1012.0
20260504023402 50 250 3.0 5.0 0.00 0.00 0.00 52 1012.0
20260504022857 50 249 3.0 5.0 0.00 0.00 0.00 53 1012.0
20260504022354 50 271 3.0 6.0 0.00 0.00 0.00 53 1012.0
20260504021851 50 271 3.0 6.0 0.00 0.00 0.00 53 1012.0
20260504021348 50 262 3.0 4.0 0.00 0.00 0.00 53 1012.0
20260504020845 50 258 3.0 4.0 0.00 0.00 0.00 53 1011.7
20260504020342 51 264 3.0 4.0 0.00 0.00 0.00 52 1011.7
20260504015838 51 263 4.0 6.0 0.00 0.00 0.00 52 1011.7
20260504015334 51 250 4.0 7.0 0.00 0.00 0.00 52 1011.7
20260504014831 51 238 3.0 7.0 0.00 0.00 0.00 51 1011.7
20260504014326 51 257 3.0 5.0 0.00 0.00 0.00 51 1011.7
20260504013825 51 260 2.0 4.0 0.00 0.00 0.00 50 1011.7
20260504013322 51 260 2.0 3.0 0.00 0.00 0.00 49 1011.7
20260504012819 51 253 2.0 3.0 0.00 0.00 0.00 49 1011.7
20260504012316 52 253 2.0 5.0 0.00 0.00 0.00 49 1011.7
20260504011814 52 255 3.0 5.0 0.00 0.00 0.00 49 1011.7
20260504011310 52 252 3.0 5.0 0.00 0.00 0.00 48 1011.7
20260504010806 53 255 3.0 5.0 0.00 0.00 0.00 47 1011.7
20260504010302 53 252 2.0 5.0 0.00 0.00 0.00 48 1011.7
20260504005759 53 271 3.0 5.0 0.00 0.00 0.00 47 1011.7
20260504005255 53 264 3.0 5.0 0.00 0.00 0.00 46 1011.7
20260504004753 53 280 3.0 5.0 0.00 0.00 0.00 46 1011.3
20260504004250 53 257 3.0 5.0 0.00 0.00 0.00 45 1011.3
20260504003747 54 265 3.0 5.0 0.00 0.00 0.00 46 1011.3
20260504003244 54 271 4.0 6.0 0.00 0.00 0.00 45 1011.3
20260504002740 54 288 3.0 6.0 0.00 0.00 0.00 45 1011.0
20260504002237 54 284 3.0 7.0 0.00 0.00 0.00 44 1011.0
20260504001735 55 289 4.0 8.0 0.00 0.00 0.00 44 1011.0
20260504001232 55 270 4.0 8.0 0.00 0.00 0.00 43 1011.0
20260504000728 55 287 5.0 10.0 0.00 0.00 0.00 44 1011.0
20260504000226 55 288 5.0 10.0 0.00 0.00 0.00 43 1011.0
20260503235724 56 266 4.0 7.0 0.00 0.00 0.00 43 1011.0
20260503235220 56 285 4.0 7.0 0.00 0.00 0.00 42 1011.0
20260503234718 56 293 5.0 9.0 0.00 0.00 0.00 41 1010.6
20260503234216 57 286 5.0 9.0 0.00 0.00 0.00 41 1010.6
20260503233713 57 269 6.0 10.0 0.00 0.00 0.00 40 1010.6
20260503233208 57 283 7.0 13.0 0.00 0.00 0.00 39 1010.6
20260503232706 58 278 7.0 13.0 0.00 0.00 0.00 38 1010.6
20260503232203 58 309 6.0 13.0 0.00 0.00 0.00 38 1010.6
20260503231701 58 310 6.0 11.0 0.00 0.00 0.00 40 1010.6
20260503231157 58 285 7.0 12.0 0.00 0.00 0.00 39 1010.6
20260503230654 59 272 5.0 12.0 0.00 0.00 0.00 39 1010.6
20260503230151 58 300 4.0 10.0 0.00 0.00 0.00 40 1010.6
20260503225648 58 290 6.0 13.0 0.00 0.00 0.00 39 1010.6
20260503225148 58 300 7.0 13.0 0.00 0.00 0.00 39 1010.6
20260503224646 58 283 7.0 15.0 0.00 0.00 0.00 40 1010.3
20260503224143 58 317 7.0 15.0 0.00 0.00 0.00 39 1010.3
20260503223641 58 252 7.0 18.0 0.00 0.00 0.00 38 1010.3
20260503223137 58 278 8.0 13.0 0.00 0.00 0.00 38 1010.3
20260503222635 59 271 8.0 14.0 0.00 0.00 0.00 38 1010.6
20260503222132 59 285 10.0 20.0 0.00 0.00 0.00 37 1010.3
20260503221631 59 298 10.0 20.0 0.00 0.00 0.00 38 1010.3
20260503221128 58 274 8.0 18.0 0.00 0.00 0.00 39 1010.3
20260503220624 57 317 7.0 16.0 0.00 0.00 0.00 39 1010.3
20260503220121 57 300 6.0 16.0 0.00 0.00 0.00 37 1010.3
20260503215618 57 312 5.0 10.0 0.00 0.00 0.00 38 1010.3
20260503215114 57 276 8.0 21.0 0.00 0.00 0.00 39 1010.3
20260503214613 58 343 8.0 21.0 0.00 0.00 0.00 37 1010.3
20260503214109 58 307 7.0 14.0 0.00 0.00 0.00 36 1010.3
20260503213608 59 286 7.0 15.0 0.00 0.00 0.00 38 1010.3
20260503213103 59 286 7.0 15.0 0.00 0.00 0.00 35 1010.3
20260503212601 59 309 7.0 13.0 0.00 0.00 0.00 35 1010.3
20260503212059 59 340 7.0 13.0 0.00 0.00 0.00 35 1010.3
20260503211556 59 304 9.0 21.0 0.00 0.00 0.00 38 1010.3
20260503211051 59 276 11.0 21.0 0.00 0.00 0.00 35 1010.3
20260503210548 58 283 9.0 20.0 0.00 0.00 0.00 36 1010.3
20260503210044 58 269 8.0 20.0 0.00 0.00 0.00 36 1010.0
20260503205541 58 267 8.0 19.0 0.00 0.00 0.00 37 1010.3
20260503205037 59 335 10.0 19.0 0.00 0.00 0.00 35 1010.3
20260503204534 59 307 11.0 19.0 0.00 0.00 0.00 35 1010.3
20260503204031 58 312 9.0 16.0 0.00 0.00 0.00 35 1010.3
20260503203528 59 311 7.0 16.0 0.00 0.00 0.00 35 1010.3
20260503203025 59 300 5.0 14.0 0.00 0.00 0.00 36 1010.3
20260503202523 59 271 6.0 14.0 0.00 0.00 0.00 38 1010.3
20260503202021 58 275 9.0 16.0 0.00 0.00 0.00 36 1010.3
20260503201519 57 304 10.0 23.0 0.00 0.00 0.00 38 1010.3
20260503201016 57 281 11.0 23.0 0.00 0.00 0.00 36 1010.6
20260503200512 57 282 10.0 20.0 0.00 0.00 0.00 36 1010.3
20260503200009 57 327 9.0 20.0 0.00 0.00 0.00 36 1010.3
20260503195506 57 309 11.0 22.0 0.00 0.00 0.00 37 1010.6
20260503195003 56 297 13.0 23.0 0.00 0.00 0.00 36 1010.6
20260503194501 56 281 12.0 24.0 0.00 0.00 0.00 36 1010.6
20260503194001 56 298 9.0 24.0 0.00 0.00 0.00 37 1010.6
20260503193457 56 295 8.0 16.0 0.00 0.00 0.00 40 1011.0
20260503192952 55 297 9.0 18.0 0.00 0.00 0.00 37 1010.6
20260503192449 56 288 9.0 18.0 0.00 0.00 0.00 39 1011.0
20260503191944 55 325 9.0 16.0 0.00 0.00 0.00 39 1010.6
20260503191442 55 336 8.0 15.0 0.00 0.00 0.00 40 1011.0
20260503190938 55 330 8.0 18.0 0.00 0.00 0.00 41 1011.0
20260503190436 55 304 10.0 20.0 0.00 0.00 0.00 38 1011.0
20260503185933 55 293 13.0 23.0 0.00 0.00 0.00 40 1011.0
20260503185429 55 291 13.0 23.0 0.00 0.00 0.00 38 1011.3
20260503184928 55 297 9.0 22.0 0.00 0.00 0.00 40 1011.0
20260503184425 55 300 7.0 17.0 0.00 0.00 0.00 41 1011.3
20260503183922 55 311 8.0 17.0 0.00 0.00 0.00 39 1011.0
20260503183418 55 306 9.0 16.0 0.00 0.00 0.00 40 1011.3
20260503182915 55 261 8.0 16.0 0.00 0.00 0.00 41 1011.3
20260503182414 54 304 9.0 20.0 0.00 0.00 0.00 41 1011.3
20260503181911 54 289 10.0 20.0 0.00 0.00 0.00 39 1011.3
20260503181408 54 302 10.0 23.0 0.00 0.00 0.00 40 1011.7
20260503180905 53 286 11.0 23.0 0.00 0.00 0.00 40 1011.3
20260503180403 54 305 13.0 26.0 0.00 0.00 0.00 37 1011.3
20260503175859 54 295 11.0 26.0 0.00 0.00 0.00 41 1011.0
20260503175357 54 276 8.0 17.0 0.00 0.00 0.00 41 1011.3
20260503174852 53 34 8.0 16.0 0.00 0.00 0.00 44 1011.7
20260503174351 54 287 9.0 17.0 0.00 0.00 0.00 40 1011.3
20260503173850 54 295 10.0 18.0 0.00 0.00 0.00 44 1011.3
20260503173347 53 322 11.0 21.0 0.00 0.00 0.00 39 1011.7
20260503172844 53 265 11.0 26.0 0.00 0.00 0.00 40 1011.7
20260503172342 54 269 9.0 26.0 0.00 0.00 0.00 39 1011.7
20260503171837 54 342 8.0 15.0 0.00 0.00 0.00 41 1011.7
20260503171334 53 358 8.0 16.0 0.00 0.00 0.00 45 1011.7
20260503170832 53 8 8.0 17.0 0.00 0.00 0.00 40 1011.7
20260503170328 53 265 8.0 17.0 0.00 0.00 0.00 39 1011.7